| time (UTC) | temp C | wind direction | speed KPH | gust KPH | rain 1hr cm | rain 24hr cm | rain mn cm | humidity % | barometer mb |
| 20260503032827 | 3 | 95 | 1.6 | 3.2 | 0.00 | 0.00 | 0.00 | 84 | 1018.4 |
| 20260503032007 | 2 | 107 | 1.6 | 3.2 | 0.00 | 0.00 | 0.00 | 84 | 1018.4 |
| 20260503031147 | 2 | 102 | 1.6 | 3.2 | 0.00 | 0.00 | 0.00 | 83 | 1018.4 |
| 20260503030326 | 2 | 101 | 1.6 | 3.2 | 0.00 | 0.00 | 0.00 | 82 | 1018.5 |
| 20260503025506 | 3 | 113 | 1.6 | 3.2 | 0.00 | 0.00 | 0.00 | 82 | 1018.7 |
| 20260503024646 | 2 | 88 | 0.0 | 3.2 | 0.00 | 0.00 | 0.00 | 80 | 1018.6 |
| 20260503023825 | 3 | 99 | 1.6 | 3.2 | 0.00 | 0.00 | 0.00 | 79 | 1018.7 |
| 20260503023005 | 3 | 105 | 1.6 | 3.2 | 0.00 | 0.00 | 0.00 | 77 | 1018.5 |
| 20260503022145 | 3 | 72 | 1.6 | 3.2 | 0.00 | 0.00 | 0.00 | 74 | 1018.6 |
| 20260503021325 | 4 | 74 | 0.0 | 3.2 | 0.00 | 0.00 | 0.00 | 73 | 1018.4 |
| 20260503020505 | 4 | 97 | 1.6 | 3.2 | 0.00 | 0.00 | 0.00 | 71 | 1018.5 |
| 20260503015644 | 5 | 93 | 1.6 | 3.2 | 0.00 | 0.00 | 0.00 | 68 | 1018.4 |
| 20260503014824 | 5 | 89 | 0.0 | 3.2 | 0.00 | 0.00 | 0.00 | 67 | 1018.5 |
| 20260503014004 | 5 | 94 | 1.6 | 3.2 | 0.00 | 0.00 | 0.00 | 62 | 1018.3 |
| 20260503013144 | 6 | 100 | 1.6 | 3.2 | 0.00 | 0.00 | 0.00 | 62 | 1018.4 |
| 20260503012323 | 6 | 107 | 1.6 | 3.2 | 0.00 | 0.00 | 0.00 | 64 | 1018.5 |
| 20260503011503 | 6 | 92 | 0.0 | 3.2 | 0.00 | 0.00 | 0.00 | 62 | 1018.3 |
| 20260503010643 | 6 | 86 | 0.0 | 3.2 | 0.00 | 0.00 | 0.00 | 61 | 1018.3 |
| 20260503005823 | 6 | 100 | 1.6 | 4.8 | 0.00 | 0.03 | 0.00 | 60 | 1018.2 |
| 20260503005003 | 7 | 105 | 0.0 | 4.8 | 0.00 | 0.03 | 0.00 | 60 | 1018.0 |
| 20260503004142 | 7 | 89 | 1.6 | 9.7 | 0.00 | 0.03 | 0.00 | 57 | 1018.2 |
| 20260503003322 | 7 | 105 | 1.6 | 9.7 | 0.00 | 0.03 | 0.00 | 57 | 1018.1 |
| 20260503002502 | 7 | 76 | 1.6 | 9.7 | 0.00 | 0.03 | 0.00 | 57 | 1018.1 |
| 20260503001642 | 7 | 70 | 1.6 | 11.3 | 0.00 | 0.03 | 0.00 | 59 | 1018.0 |
| 20260503000821 | 7 | 76 | 1.6 | 11.3 | 0.00 | 0.03 | 0.00 | 56 | 1018.0 |
| 20260503000001 | 7 | 51 | 3.2 | 14.5 | 0.00 | 0.03 | 0.00 | 55 | 1017.8 |
| 20260502235141 | 7 | 47 | 3.2 | 17.7 | 0.00 | 0.03 | 0.00 | 55 | 1017.7 |
| 20260502234321 | 7 | 53 | 1.6 | 9.7 | 0.00 | 0.03 | 0.00 | 53 | 1017.9 |
| 20260502233500 | 7 | 100 | 1.6 | 9.7 | 0.00 | 0.03 | 0.00 | 55 | 1018.0 |
| 20260502232640 | 7 | 75 | 1.6 | 17.7 | 0.00 | 0.03 | 0.00 | 53 | 1017.8 |
| 20260502231820 | 7 | 235 | 3.2 | 9.7 | 0.00 | 0.03 | 0.00 | 54 | 1017.8 |
| 20260502231000 | 7 | 146 | 3.2 | 11.3 | 0.00 | 0.03 | 0.00 | 51 | 1017.7 |
| 20260502230140 | 8 | 177 | 1.6 | 8.0 | 0.00 | 0.03 | 0.00 | 57 | 1017.8 |
| 20260502225319 | 7 | 53 | 3.2 | 12.9 | 0.00 | 0.03 | 0.00 | 54 | 1017.7 |
| 20260502224459 | 8 | 86 | 3.2 | 11.3 | 0.00 | 0.03 | 0.00 | 52 | 1017.8 |
| 20260502223639 | 8 | 46 | 3.2 | 19.3 | 0.00 | 0.03 | 0.00 | 50 | 1017.4 |
| 20260502222819 | 8 | 39 | 3.2 | 14.5 | 0.00 | 0.03 | 0.00 | 52 | 1017.7 |
| 20260502221959 | 8 | 318 | 4.8 | 16.1 | 0.00 | 0.03 | 0.00 | 52 | 1017.8 |
| 20260502221138 | 8 | 282 | 3.2 | 14.5 | 0.00 | 0.03 | 0.00 | 51 | 1017.7 |
| 20260502220318 | 8 | 266 | 4.8 | 20.9 | 0.00 | 0.03 | 0.00 | 50 | 1017.6 |
| 20260502215458 | 8 | 257 | 4.8 | 12.9 | 0.00 | 0.03 | 0.00 | 48 | 1017.5 |
| 20260502214638 | 8 | 269 | 3.2 | 14.5 | 0.00 | 0.03 | 0.00 | 49 | 1017.6 |
| 20260502213817 | 8 | 341 | 4.8 | 20.9 | 0.00 | 0.03 | 0.00 | 49 | 1017.7 |
| 20260502212957 | 8 | 360 | 3.2 | 16.1 | 0.00 | 0.03 | 0.00 | 46 | 1017.5 |
| 20260502212137 | 9 | 269 | 3.2 | 14.5 | 0.00 | 0.03 | 0.00 | 49 | 1017.2 |
| 20260502211317 | 9 | 258 | 3.2 | 14.5 | 0.00 | 0.03 | 0.00 | 51 | 1017.3 |
| 20260502210457 | 8 | 246 | 4.8 | 17.7 | 0.00 | 0.03 | 0.00 | 48 | 1017.5 |
| 20260502205636 | 8 | 267 | 3.2 | 16.1 | 0.00 | 0.03 | 0.00 | 48 | 1017.5 |
| 20260502204816 | 9 | 318 | 3.2 | 20.9 | 0.00 | 0.03 | 0.00 | 49 | 1017.4 |
| 20260502203956 | 9 | 25 | 4.8 | 29.0 | 0.00 | 0.03 | 0.00 | 50 | 1017.4 |
| 20260502203136 | 9 | 266 | 4.8 | 14.5 | 0.00 | 0.03 | 0.00 | 51 | 1017.4 |
| 20260502202315 | 9 | 287 | 4.8 | 20.9 | 0.00 | 0.03 | 0.00 | 48 | 1017.6 |
| 20260502201455 | 9 | 252 | 4.8 | 14.5 | 0.00 | 0.03 | 0.00 | 50 | 1017.6 |
| 20260502200635 | 10 | 261 | 4.8 | 29.0 | 0.00 | 0.03 | 0.00 | 51 | 1017.5 |
| 20260502195814 | 9 | 30 | 4.8 | 29.0 | 0.00 | 0.03 | 0.00 | 46 | 1017.4 |
| 20260502194954 | 10 | 327 | 4.8 | 22.5 | 0.00 | 0.03 | 0.00 | 48 | 1017.7 |
| 20260502194134 | 8 | 284 | 3.2 | 14.5 | 0.00 | 0.03 | 0.00 | 48 | 1017.8 |
| 20260502193314 | 9 | 308 | 4.8 | 16.1 | 0.00 | 0.03 | 0.00 | 48 | 1017.8 |
| 20260502192453 | 10 | 250 | 4.8 | 24.1 | 0.00 | 0.03 | 0.00 | 45 | 1017.5 |
| 20260502191633 | 10 | 252 | 6.4 | 24.1 | 0.00 | 0.03 | 0.00 | 49 | 1018.0 |
| 20260502190813 | 8 | 244 | 4.8 | 17.7 | 0.00 | 0.03 | 0.00 | 50 | 1017.7 |
| 20260502185953 | 10 | 46 | 4.8 | 16.1 | 0.00 | 0.03 | 0.00 | 48 | 1018.0 |
| 20260502185133 | 9 | 20 | 6.4 | 27.4 | 0.00 | 0.03 | 0.00 | 51 | 1017.8 |
| 20260502184313 | 9 | 27 | 8.0 | 27.4 | 0.00 | 0.03 | 0.00 | 49 | 1017.9 |
| 20260502183452 | 9 | 29 | 4.8 | 24.1 | 0.00 | 0.03 | 0.00 | 49 | 1018.0 |
| 20260502182632 | 9 | 26 | 6.4 | 25.7 | 0.00 | 0.03 | 0.00 | 53 | 1018.0 |
| 20260502181812 | 9 | 269 | 4.8 | 16.1 | 0.00 | 0.03 | 0.00 | 48 | 1017.9 |
| 20260502180952 | 9 | 260 | 6.4 | 17.7 | 0.00 | 0.03 | 0.00 | 50 | 1018.0 |
| 20260502180132 | 9 | 269 | 6.4 | 19.3 | 0.00 | 0.03 | 0.00 | 53 | 1018.2 |
| 20260502170311 | 8 | 256 | 6.4 | 17.7 | 0.00 | 0.03 | 0.00 | 51 | 1018.3 |
| 20260502163810 | 8 | 41 | 4.8 | 20.9 | 0.00 | 0.03 | 0.00 | 49 | 1018.4 |
| 20260502162950 | 8 | 264 | 4.8 | 20.9 | 0.00 | 0.03 | 0.00 | 53 | 1018.4 |
| 20260502162130 | 8 | 19 | 6.4 | 20.9 | 0.00 | 0.03 | 0.00 | 53 | 1018.3 |
| 20260502161310 | 8 | 254 | 4.8 | 14.5 | 0.00 | 0.05 | 0.00 | 57 | 1018.8 |
| 20260502160450 | 8 | 29 | 6.4 | 19.3 | 0.00 | 0.05 | 0.00 | 54 | 1018.4 |
| 20260502152309 | 8 | 8 | 4.8 | 24.1 | 0.00 | 0.10 | 0.00 | 57 | 1018.7 |
| 20260502151449 | 8 | 333 | 4.8 | 16.1 | 0.00 | 0.13 | 0.00 | 61 | 1018.4 |
| 20260502150629 | 7 | 333 | 4.8 | 17.7 | 0.00 | 0.13 | 0.00 | 60 | 1018.5 |
| 20260502130125 | 5 | 53 | 4.8 | 20.9 | 0.00 | 0.23 | 0.00 | 75 | 1018.2 |
| 20260502123624 | 4 | 244 | 3.2 | 11.3 | 0.00 | 0.23 | 0.00 | 78 | 1018.1 |
| 20260502122804 | 3 | 240 | 3.2 | 9.7 | 0.00 | 0.23 | 0.00 | 79 | 1017.9 |
| 20260502121943 | 2 | 248 | 3.2 | 11.3 | 0.00 | 0.23 | 0.00 | 84 | 1018.0 |
| 20260502121123 | 2 | 215 | 3.2 | 9.7 | 0.00 | 0.23 | 0.00 | 92 | 1017.9 |
| 20260502120303 | 1 | 240 | 3.2 | 11.3 | 0.00 | 0.23 | 0.00 | 98 | 1017.8 |
| 20260502115443 | 1 | 232 | 1.6 | 6.4 | 0.00 | 0.23 | 0.00 | 99 | 1017.7 |
| 20260502114623 | 1 | 227 | 1.6 | 4.8 | 0.00 | 0.23 | 0.00 | 99 | 1017.8 |
| 20260502113802 | 1 | 230 | 1.6 | 4.8 | 0.00 | 0.23 | 0.00 | 99 | 1017.7 |
| 20260502112942 | 0 | 103 | 0.0 | 4.8 | 0.00 | 0.23 | 0.00 | 99 | 1017.7 |
| 20260502112122 | 0 | 81 | 1.6 | 4.8 | 0.00 | 0.23 | 0.00 | 99 | 1017.8 |
| 20260502111302 | 0 | 76 | 1.6 | 3.2 | 0.00 | 0.23 | 0.00 | 99 | 1017.7 |
| 20260502110442 | 0 | 107 | 0.0 | 3.2 | 0.00 | 0.23 | 0.00 | 99 | 1017.6 |
| 20260502105622 | 0 | 114 | 0.0 | 3.2 | 0.00 | 0.23 | 0.00 | 99 | 1017.4 |
| 20260502104801 | 0 | 79 | 1.6 | 4.8 | 0.00 | 0.23 | 0.00 | 99 | 1017.6 |
| 20260502103941 | 0 | 75 | 1.6 | 4.8 | 0.00 | 0.23 | 0.00 | 99 | 1017.5 |
| 20260502103121 | 0 | 83 | 1.6 | 3.2 | 0.00 | 0.23 | 0.00 | 99 | 1017.7 |
| 20260502102301 | 0 | 93 | 1.6 | 4.8 | 0.00 | 0.23 | 0.00 | 99 | 1017.6 |
| 20260502101440 | 0 | 94 | 1.6 | 6.4 | 0.00 | 0.23 | 0.00 | 99 | 1017.6 |
| 20260502100620 | 0 | 88 | 1.6 | 6.4 | 0.00 | 0.23 | 0.00 | 99 | 1017.4 |
| 20260502090758 | 0 | 67 | 1.6 | 4.8 | 0.00 | 0.23 | 0.00 | 99 | 1017.6 |
| 20260502071116 | 1 | 65 | 1.6 | 4.8 | 0.00 | 0.23 | 0.00 | 98 | 1017.6 |
| 20260502070256 | 1 | 65 | 0.0 | 4.8 | 0.00 | 0.23 | 0.00 | 98 | 1017.4 |
| 20260502065436 | 1 | 70 | 0.0 | 3.2 | 0.00 | 0.23 | 0.00 | 98 | 1017.4 |
| 20260502064615 | 1 | 84 | 1.6 | 3.2 | 0.00 | 0.23 | 0.00 | 98 | 1017.5 |
| 20260502063755 | 1 | 72 | 1.6 | 4.8 | 0.00 | 0.23 | 0.00 | 98 | 1017.6 |
| 20260502062935 | 1 | 81 | 1.6 | 3.2 | 0.00 | 0.23 | 0.00 | 98 | 1017.6 |
| 20260502062115 | 1 | 83 | 1.6 | 4.8 | 0.00 | 0.23 | 0.00 | 98 | 1017.8 |
| 20260502061254 | 1 | 103 | 1.6 | 4.8 | 0.00 | 0.23 | 0.00 | 98 | 1017.5 |
| 20260502060434 | 2 | 91 | 0.0 | 3.2 | 0.00 | 0.23 | 0.00 | 98 | 1017.6 |
| 20260502055614 | 2 | 84 | 1.6 | 4.8 | 0.00 | 0.23 | 0.00 | 98 | 1017.6 |
| 20260502054753 | 1 | 89 | 1.6 | 3.2 | 0.00 | 0.23 | 0.00 | 98 | 1017.8 |
| 20260502053933 | 2 | 87 | 1.6 | 3.2 | 0.00 | 0.23 | 0.00 | 98 | 1017.9 |
| 20260502053113 | 2 | 108 | 0.0 | 3.2 | 0.00 | 0.23 | 0.00 | 98 | 1017.9 |
| 20260502052253 | 2 | 91 | 1.6 | 4.8 | 0.00 | 0.23 | 0.00 | 98 | 1017.9 |
| 20260502051432 | 2 | 88 | 1.6 | 4.8 | 0.00 | 0.23 | 0.00 | 98 | 1017.8 |
| 20260502050612 | 2 | 64 | 0.0 | 3.2 | 0.00 | 0.23 | 0.00 | 98 | 1017.9 |
| 20260502045752 | 2 | 85 | 0.0 | 3.2 | 0.00 | 0.23 | 0.00 | 98 | 1017.8 |
| 20260502044932 | 2 | 73 | 0.0 | 3.2 | 0.00 | 0.23 | 0.00 | 98 | 1017.6 |
| 20260502044111 | 2 | 90 | 1.6 | 3.2 | 0.00 | 0.23 | 0.00 | 97 | 1017.7 |
| 20260502043251 | 2 | 87 | 1.6 | 4.8 | 0.00 | 0.23 | 0.00 | 97 | 1017.5 |
| 20260502042431 | 2 | 82 | 1.6 | 4.8 | 0.00 | 0.23 | 0.00 | 97 | 1017.8 |
| 20260502041611 | 2 | 99 | 1.6 | 4.8 | 0.00 | 0.23 | 0.00 | 97 | 1017.8 |
| 20260502040751 | 3 | 114 | 1.6 | 4.8 | 0.00 | 0.23 | 0.00 | 97 | 1017.7 |
| 20260502035930 | 2 | 102 | 1.6 | 4.8 | 0.00 | 0.23 | 0.23 | 97 | 1017.7 |
| 20260502035110 | 2 | 91 | 1.6 | 3.2 | 0.00 | 0.23 | 0.23 | 97 | 1017.7 |
| 20260502034250 | 3 | 103 | 1.6 | 3.2 | 0.00 | 0.23 | 0.23 | 97 | 1017.6 |
| 20260502033430 | 3 | 107 | 1.6 | 3.2 | 0.00 | 0.23 | 0.23 | 97 | 1017.6 |